Regional Weather Roundup
Issued by NWS

Home | Current Version | Previous Version | Text Only | Print | Product List | Glossary Off
Versions: 1 2 3 4 5 6 7 8 9 10 11 12 13 14 15 16 17 18 19 20 21 22 23 24 25 26 27 28 29 30 31 32 33 34 35 36 37 38 39 40 41 42 43 44 45 46 47 48 49 50

775
ASUS45 KBOU 220110
RWRCO

WEATHER ROUNDUP FOR COLORADO
NATIONAL WEATHER SERVICE DENVER/BOULDER CO
600 PM MST TUE NOV 21 2017

NOTE: "FAIR" INDICATES FEW OR NO CLOUDS BELOW 12000 FEET WITH NO
SIGNIFICANT WEATHER AND/OR OBSTRUCTIONS TO VISIBILITY.

COZ001>005-013-030-031-220200-
...NORTHWEST COLORADO...

CITY           SKY/WX    TMP DP  RH WIND       PRES   REMARKS
CRAIG          FAIR      39  32  76 CALM      30.36R
HAYDEN         FAIR      42  32  67 SW6       30.38R
MEEKER         FAIR      40  33  76 CALM      30.36R
RABBIT EARS PA SNOW      30  30 100 W15G29    30.42S VSB 1/2 WCI  19
STEAMBOAT SPGS MOCLDY    37  35  94 NE6       30.38R
WALDEN         FAIR      36  27  69 S7        30.36F
$$

COZ006>008-011-220200-
...WEST CENTRAL VALLEYS...

CITY           SKY/WX    TMP DP  RH WIND       PRES   REMARKS
GRAND JUNCTION FAIR      47  21  35 N7        30.34R
MONTROSE       FAIR      44  26  49 CALM      30.37R
EAGLE          MOCLDY    39  31  72 E8        30.41R
RIFLE          FAIR      40  33  76 CALM      30.38R
DELTA          FAIR      51  22  31 CALM      30.35R
NUCLA          FAIR      52  28  40 NW6       30.37
$$

COZ017>023-064>068-220200-
...SOUTHWEST COLORADO...

CITY           SKY/WX    TMP DP  RH WIND       PRES   REMARKS
DURANGO        FAIR      44  22  41 E7        30.30R
CORTEZ         FAIR      53  30  41 N9        30.32R
PAGOSA SPRINGS FAIR      42  20  40 CALM      30.36R
TELLURIDE      FAIR      41  27  57 W7        30.45R
WOLF CREEK PAS FAIR      30  14  51 W5        30.55R WCI  25
$$

COZ009-010-012-014-032>034-037-058>063-220200-
...CENTRAL COLORADO...

CITY           SKY/WX    TMP DP  RH WIND       PRES   REMARKS
ASPEN          CLOUDY    37  30  75 S6        30.41R
BUENA VISTA    FAIR      41  23  48 NW13      30.36R
COPPER MTN     CLOUDY    28  23  80 MISG      30.48R
BERTHOUD PASS  CLOUDY    21  10  63 NW39G53   30.39R WCI   1
COTTONWOOD PAS FAIR      41  27  56 NW6G20    30.40R
GUNNISON       FAIR      38  26  62 CALM      30.39R
KREMMLING      CLOUDY    41  34  75 SE6       30.41R
LEADVILLE      FAIR      26  20  77 NE5       30.42R WCI  20
MONARCH PASS   FAIR      27  19  74 W16       30.57S WCI  14
SALIDA         FAIR      41  32  69 SE8       30.43R
SUNLIGHT       FAIR      28  27  93 MISG      30.53R
WILKERSON PASS FAIR      28  18  64 NW12G24   30.43S WCI  18
$$

COZ069>075-220200-
...SAN LUIS VALLEY/SANGRE DE CRISTO MOUNTAINS...

CITY           SKY/WX    TMP DP  RH WIND       PRES   REMARKS
ALAMOSA        FAIR      46  22  38 N12       30.32R
DEL NORTE      FAIR      46  21  37 NW12      30.36R
LA VETA PASS   FAIR      32  27  80 W8G16       N/A  WCI  25
SAGUACHE       FAIR      43  23  45 CALM      30.36R
$$

COZ035-036-038>040-220200-
...NORTHERN COLORADO FRONT RANGE...

CITY           SKY/WX    TMP DP  RH WIND       PRES   REMARKS
DENVER INTL AP FAIR      34  29  82 S9        30.29F WCI  27
DMNS CITY PARK   N/A     41  31  67 E9        30.28F
AURORA         PTCLDY    37  31  79 SE12      30.29F
FRONT RANGE AP MOCLDY    37  32  81 SE7       30.30S
ERIE MUNI ARPT FAIR      33  29  86 CALM      30.34F
BOULDER MUN AP FAIR      41  34  75 S3        30.28F
CENTENNIAL     FAIR      38  32  79 SE3       30.29F
BROOMFIELD     MOCLDY    39  32  75 CALM      30.29F
FORT COLLINS   FAIR      37  33  85 S5        30.30S
LONGMONT       FAIR      40  32  72 CALM      30.31S
$$

COZ041-046-047-076>085-087-088-220200-
...PIKES PEAK/PALMER DIVIDE AND SOUTHERN FOOTHILLS...

CITY           SKY/WX    TMP DP  RH WIND       PRES   REMARKS
COLO. SPRINGS  MOCLDY    41  32  70 SE8       30.34S
A. F. ACADEMY  CLOUDY    39  30  72 S5        30.33R
SCHRIEVER AFB  MOCLDY    38  29  71 S7        30.35R
CHEYENNE MTN   FAIR      38  32  78 S7        30.28R
ELLICOTT         N/A    N/A N/A N/A SE7       30.34R
FALCON         MOCLDY    35  30  81 S5        30.35R WCI  31
FORT CARSON    FAIR      39  31  72 S8        30.33R
LIMON          FAIR      27  22  81 CALM      30.34R
MONUMENT HILL  FAIR      32  30  93 S9        30.33S WCI  24
CANON CITY     FAIR      43  34  70 NE3       30.33R
WALSENBURG     CLOUDY    41  34  75 SW3       30.35R
TRINIDAD       MOCLDY    41  33  73 CALM      30.34R
$$

COZ042>045-048>051-090-091-220200-
...NORTHEAST COLORADO...

CITY           SKY/WX    TMP DP  RH WIND       PRES   REMARKS
GREELEY ARPT   FAIR      37  31  78 CALM      30.31S
AKRON          FAIR      36  25  64 SW9       30.31R
BURLINGTON     FAIR      29  22  75 S7        30.34R WCI  22
WRAY           NOT AVBL
YUMA           FAIR      32  23  69 S3        30.31S
STERLING       FAIR      37  28  70 S6        30.29S
HOLYOKE        FAIR      34  23  64 S5        30.32R HAZE    WCI  30
FORT MORGAN    FAIR      36  24  62 SW3       30.31R
$$

COZ086-089-092>099-220200-
...SOUTHEAST COLORADO...

CITY           SKY/WX    TMP DP  RH WIND       PRES   REMARKS
PUEBLO         CLOUDY    45  32  60 SE6       30.32R
LA JUNTA       FAIR      42  27  55 SE7       30.33R
LAMAR          FAIR      38  24  57 E9        30.33R
SPRINGFIELD      N/A     32  23  69 S3        30.35R
$$




USA.gov is the U.S. government's official web portal to all federal, state and local government web resources and services.